Location: Isola Pescaroli
(45.0500°N, 10.1667°E)
Time: 00:55:42
(UTC+00:00)

Cosmos 2263 Rocket - Pass Details

Date: 03 March 2021
Orbit: 825 x 847 km, 71.0° (Epoch: 20 April)

Event Time Altitude Azimuth Distance (km) Brightness Sun altitude
Rises 17:48:11 0° 329° (NNW) 3,371 5.8 -7.6°
Reaches altitude 10° 17:50:40 10° 325° (NW) 2,434 5.1 -8.1°
Maximum altitude 17:56:02 50° 251° (WSW) 1,040 3.2 -9.0°
Drops below altitude 10° 18:01:22 10° 177° (S) 2,422 4.6 -9.9°
Sets 18:03:51 0° 172° (S) 3,353 5.2 -10.4°
